Regional Weather Roundup
Issued by NWS Mt. Holly, NJ

Home | Current Version | Previous Version | Text Only | Print | Product List | Glossary On
Versions: 1 2 3 4 5 6 7 8 9 10 11 12 13 14 15 16 17 18 19 20 21 22 23 24 25 26 27 28 29 30 31 32 33 34 35 36 37 38 39 40 41 42 43 44 45 46 47 48 49 50
000
ASUS41 KPHI 241213
RWRPHI

REGIONAL WEATHER ROUNDUP
NATIONAL WEATHER SERVICE MOUNT HOLLY NJ
700 AM EST SAT FEB 24 2018

NOTE:  "FAIR" INDICATES FEW OR NO CLOUDS BELOW 12,000 FEET WITH NO
SIGNIFICANT WEATHER AND/OR OBSTRUCTIONS TO VISIBILITY.

 * = STATION DOES NOT REPORT PRECIPITATION (E.G. RAIN, SNOW, ETC.)
        OR FOG.

NJZ015>026-241300-
SOUTHERN NEW JERSEY

CITY           SKY/WX    TMP DP  RH WIND       PRES   REMARKS
POMONA         CLOUDY    46  46 100 W6        30.21R FOG
6HR MIN TEMP:  46; 6HR MAX TEMP:  47;

WILDWOOD*      FOG       47  47 100 CALM      30.21S VSB 1/4
MILLVILLE      FOG       46  46 100 CALM      30.19R VSB 1/4
WRIGHTSTOWN    CLOUDY    44  44  98 W5        30.16R FOG
MOUNT HOLLY    CLOUDY    45  45 100 CALM      30.18F FOG
TRENTON        CLOUDY    44  43  96 CALM      30.18S FOG
6HR MIN TEMP:  44; 6HR MAX TEMP:  44;


$$
NJZ001>014-241300-
NORTHERN NEW JERSEY

CITY           SKY/WX    TMP DP  RH WIND       PRES   REMARKS
SUSSEX         CLOUDY    40  40 100 CALM      30.18R FOG
ANDOVER*         N/A     40  40 100 CALM      30.19R
MORRISTOWN     MOCLDY    39  37  93 MISG      30.18R
NEWARK         MOCLDY    44  42  93 W7        30.18R
TETERBORO      FAIR      43  41  93 SW5       30.17R
CALDWELL       CLOUDY    41  41 100 CALM      30.18R FOG
SOMERVILLE     CLOUDY    42  42 100 CALM      30.17R FOG
ALLAIRE*       CLOUDY    44  43  96 W7          N/A  FOG
TOMS RIVER*    CLOUDY    44  44 100 W6        30.19S FOG

$$
PAZ043-044-047-054-055-060>062-066>071-241300-
EASTERN PENNSYLVANIA

CITY           SKY/WX    TMP DP  RH WIND       PRES   REMARKS
PHILADELPHIA   CLOUDY    44  43  96 S3        30.19F FOG
6HR MIN TEMP:  44; 6HR MAX TEMP:  45;

NORTH PHILA    CLOUDY    46  43  89 W3        30.20S FOG
BLUE BELL*     CLOUDY    41  41 100 CALM      30.19S
DOYLESTOWN     CLOUDY    42  42 100 N3        30.17S FOG
QUAKERTOWN*    CLEAR     39  39 100 CALM      30.18R FOG
PERKASIE*      FOG       39  39 100 CALM      30.18S VSB<1/4
POTTSTOWN      FOG       42  42 100 CALM      30.18S VSB 1/4
LANCASTER      FOG       43  43 100 CALM      30.17S VSB 1/4
COATESVILLE    FOG       43  43 100 CALM      30.18S VSB<1/4
READING        CLOUDY    42  42 100 CALM      30.18R FOG
6HR MIN TEMP:  42; 6HR MAX TEMP:  43;

ALLENTOWN      CLOUDY    42  40  92 CALM      30.18S FOG
6HR MIN TEMP:  40; 6HR MAX TEMP:  43;

MOUNT POCONO   CLOUDY    40  40 100 NW9       30.14R WCI  34
6HR MIN TEMP:  36; 6HR MAX TEMP:  41;

HAZLETON       FOG       39  37  93 NW6       30.18F VSB<1/4 WCI  35
LEHIGHTON      FOG       39  39 100 CALM      30.19F VSB 1
WILKES BARRE   FOG       40  40 100 W3        30.18F VSB 1/4

$$
DEZALL-MDZ008-012-015-019-020-241300-
DELAWARE AND EASTERN MARYLAND

CITY           SKY/WX    TMP DP  RH WIND       PRES   REMARKS
WILMINGTON     CLOUDY    44  43  96 CALM      30.18F FOG
6HR MIN TEMP:  44; 6HR MAX TEMP:  45;

DOVER          FOG       48  46  93 NE3       30.19S VSB 1/2
GEORGETOWN     FOG       50  49  96 S3        30.19S VSB 1/4
6HR MIN TEMP:  48; 6HR MAX TEMP:  50;

EASTON         FOG       50  48  93 CALM      30.21S VSB 1/2
ABERDEEN       FOG      N/A N/A N/A CALM      30.18F VSB 3/8
PATUXENT       FOG       45  45 100 SE5       30.17  VSB 1/2
OCEAN CITY     FOG       44  44 100 S3        30.20S VSB 1/2
WALLOPS ISLAND FOG       48  47  96 S5        30.20R VSB 1/4
CAMBRIDGE      FOG       48  48 100 SE6       30.18R VSB 1/4
SALISBURY      FOG       49  49 100 E3        30.18F VSB 1/4

$$
PAZ001-021-NYZ056-072-MDZ011-DCZ001-241300-
OTHER NEARBY LOCATIONS

CITY           SKY/WX    TMP DP  RH WIND       PRES   REMARKS
HARRISBURG     FOG       44  42  93 CALM      30.17S VSB 1/2
STATE COLLEGE  FOG       39  39 100 CALM      30.16S VSB 1/8
WILLIAMSPORT   FOG       40  40 100 CALM      30.19F VSB 1
BINGHAMTON     CLOUDY    39  38  96 NW6       30.16R WCI  35
NEW YORK CITY  FAIR      45  41  86 MISG      30.20R
BALTIMORE      FOG       45  45 100 E5        30.16S VSB<1/4
WASHINGTON DC  FOG       50  50 100 E5        30.15S VSB 1/8

$$



USA.gov is the U.S. government's official web portal to all federal, state and local government web resources and services.